Concordia, KS

11:17 AM CDT on July 27, 2017 (GMT -0500)
Blosser Municipal

Weather History for KCNK - January, 2012

Change the Weather History Date:

Saturday, January 21, 2012

  Actual Average Record
Temperature  
Mean Temperature 18 °F 29 °F  
Max Temperature 31 °F 39 °F 63 °F (1964)
Min Temperature 4 °F 19 °F -17 °F (1888)
Degree Days  
Heating Degree Days 47 36  
Month to date heating degree days 694 770  
Since 1 July heating degree days 2663 2947  
Cooling Degree Days 0 0  
Month to date cooling degree days 0 0  
Year to date cooling degree days 0 0  
Moisture  
Dew Point 11 °F    
Average Humidity 69    
Maximum Humidity 87    
Minimum Humidity 50    
Precipitation  
Precipitation 0.00 in 0.02 in 0.26 in (1945)
Month to date precipitation 0.13 0.34  
Year to date precipitation 0.13 0.34  
Snow  
Snow 0.00 in 0.20 in 6.00 in (1959)
Month to date snowfall 1.1 3.7  
Year to date snowfall 1.1 3.7  
Since 1 July snowfall 2.0 10.2  
Snow Depth 0.00 in    
Sea Level Pressure  
Sea Level Pressure 29.98 in    
Wind  
Wind Speed 13 mph (SE)    
Max Wind Speed 26 mph    
Max Gust Speed 33 mph    
Visibility 10 miles    
Events      
T = Trace of Precipitation, MM = Missing Value Source: NWS Daily Summary

Daily Weather History Graph

Daily Weather History Graph

Search for Another Location

Airport or City:

Trip Planner

Search our weather history database for the weather conditions in past years. The results will help you decide how hot, cold, wet, or windy it might be!

Date:

Astronomy

Jan. 21, 2012 Rise Set
Actual Time 7:46 AM CST 5:37 PM CST
Civil Twilight 7:17 AM CST 6:06 PM CST
Nautical Twilight 6:44 AM CST 6:39 PM CST
Astronomical Twilight 6:12 AM CST 7:11 PM CST
Moon 6:18 AM CST (1/21) 4:14 PM CST (1/21)
Length of Visible Light 10h 48m
Length of Day
9h 50m
Waning Crescent, 3% of the Moon is Illuminated
Jan 21
Waning Crescent
Jan 23
New
Jan 30
First Quarter
Feb 7
Full
Feb 14
Last Quarter

Hourly Weather History & Observations

Time (CST) Temp. Windchill Dew Point Humidity Pressure Visibility Wind Dir Wind Speed Gust Speed Precip Events Conditions
12:55 AM 10.9 °F -2.6 °F 3.9 °F 73% 30.26 in 10.0 mi North 10.4 mph - N/A   Clear
1:55 AM 10.0 °F -1.9 °F 3.0 °F 73% 30.27 in 10.0 mi North 8.1 mph - N/A   Clear
2:55 AM 8.6 °F -1.3 °F 3.2 °F 79% 30.16 in 10.0 mi NNE 5.8 mph - N/A   Clear
3:55 AM 8.1 °F -0.5 °F 3.0 °F 80% 30.24 in 10.0 mi North 4.6 mph - N/A   Clear
4:55 AM 7.0 °F 0.1 °F 1.9 °F 80% 30.21 in 10.0 mi NNE 3.5 mph - N/A   Clear
5:55 AM 6.1 °F -0.9 °F 1.9 °F 83% 30.21 in 10.0 mi North 3.5 mph - N/A   Clear
6:55 AM 6.1 °F - 1.9 °F 83% 30.20 in 10.0 mi Calm Calm - N/A   Clear
8:55 AM 8.1 °F -2.0 °F 3.0 °F 80% 30.18 in 10.0 mi ESE 5.8 mph - N/A   Clear
9:55 AM 12.0 °F 0.5 °F 5.0 °F 73% 30.17 in 10.0 mi SE 8.1 mph - N/A   Clear
10:55 AM 17.6 °F 6.4 °F 8.6 °F 68% 30.08 in 10.0 mi SSE 9.2 mph - N/A   Clear
11:55 AM 21.0 °F 9.3 °F 10.0 °F 63% 30.11 in 10.0 mi SSE 11.5 mph - N/A   Clear
12:55 PM 25.0 °F 13.1 °F 12.0 °F 58% 30.03 in 10.0 mi SSE 13.8 mph - N/A   Clear
1:55 PM 28.0 °F 16.5 °F 12.9 °F 53% 29.98 in 10.0 mi South 15.0 mph 23.0 mph N/A   Clear
2:55 PM 30.0 °F 17.9 °F 16.0 °F 56% 29.93 in 10.0 mi SSE 18.4 mph 24.2 mph N/A   Clear
3:55 PM 30.9 °F 18.7 °F 17.1 °F 57% 29.88 in 10.0 mi SSE 19.6 mph 25.3 mph N/A   Clear
4:55 PM 30.0 °F 17.2 °F 17.1 °F 59% 29.84 in 10.0 mi SSE 20.7 mph 26.5 mph N/A   Clear
5:55 PM 28.9 °F 16.9 °F 17.1 °F 61% 29.78 in 10.0 mi SE 17.3 mph - N/A   Clear
6:55 PM 28.4 °F 15.4 °F 17.6 °F 64% 29.68 in 10.0 mi SE 19.6 mph 28.8 mph N/A   Clear
7:55 PM 28.0 °F 13.6 °F 18.0 °F 66% 29.73 in 10.0 mi SE 24.2 mph 27.6 mph N/A   Clear
8:55 PM 26.6 °F 12.7 °F 17.6 °F 69% 29.65 in 10.0 mi SSE 20.7 mph - N/A   Clear
9:55 PM 27.0 °F 13.9 °F 19.0 °F 72% 29.68 in 9.0 mi SE 18.4 mph 26.5 mph N/A   Clear
10:55 PM 26.1 °F 12.0 °F 19.0 °F 75% 29.63 in 8.0 mi SE 20.7 mph 32.2 mph N/A   Clear
11:55 PM 27.0 °F 12.5 °F 19.9 °F 75% 29.59 in 8.0 mi SE 23.0 mph - N/A   Clear